User: anonymous   Login
Location: Unspecified
(0.0000°N, 0.0000°E)
Time: 10:27:33
(UTC+02:00)
Language:

Meteor 2-8 Rocket - Orbit

View from above orbital plane
View from above orbital plane
View from above satellite
View from above satellite

Ground track
Ground track

The orbit data is extracted from the following two-line orbital elements,

1 13114U 82025B   16147.55139404  .00000014  00000-0 -42817-6 0  9991
2 13114  82.5376 150.4212 0015144 151.4334 322.2279 13.84653580726908
Epoch (UTC): 26 May 2016 13:14:00
Eccentricity: 0.0015144
inclination: 82.5376°
perigee height: 936 km
apogee height: 958 km
right ascension of ascending node: 150.4212°
argument of perigee: 151.4334°
revolutions per day: 13.84653580
mean anomaly at epoch: 322.2279°
orbit number at epoch: 72690

The dashed part of the orbit path shows where the satellite is in the earth's shadow,  

DLR